Wind_Speed
18 18 15 14 13 13 12 11 9 7 6 6 4 4 4 4 3 1 2 4 4 6 10 12 15 14 12 11 11 11 12 9 8 9 10 9 12 11 12 15 19 21 24 28 23
15 15 14 13 13 13 11 9 8 7 6 6 6 5 4 3 1 3 4 5 6 8 10 12 15 14 13 11 11 13 13 13 12 10 13 14 15 19 18 20 23 25 25 28 22
14 13 13 13 11 11 11 9 8 8 7 7 7 4 6 5 5 5 7 8 9 11 12 12 14 15 15 15 14 14 15 16 15 18 18 19 22 22 23 25 28 28 31 32 30
14 13 11 11 10 10 9 8 7 8 8 8 8 6 7 6 5 7 9 11 12 13 14 15 17 16 17 18 19 19 20 21 22 22 23 25 24 26 28 29 32 33 31 32 35
14 12 11 10 8 7 6 6 6 8 10 9 8 7 7 7 7 10 12 14 16 17 16 18 19 18 18 21 22 24 26 27 28 29 30 31 34 35 35 33 34 36 39 40 40
15 13 12 10 7 6 5 5 6 8 9 9 8 8 8 7 9 12 14 15 16 17 18 20 20 21 22 22 25 26 27 29 30 32 34 35 37 41 41 41 39 44 46 48 50
16 14 13 12 9 7 6 6 6 7 8 8 8 8 8 9 10 11 14 17 18 19 20 21 21 22 23 24 26 28 30 32 32 33 34 37 38 45 47 49 51 51 53 55 57
18 16 14 13 12 10 9 8 7 7 8 8 9 8 10 12 13 15 17 19 20 20 21 22 22 23 24 26 28 28 31 33 36 37 39 40 40 50 55 59 62 64 65 67 68
20 20 16 15 15 14 13 13 13 13 11 11 11 11 12 15 16 17 18 19 19 19 20 21 22 24 25 28 30 30 30 31 32 38 42 47 49 57 61 68 73 75 75 76 76
26 23 19 18 17 16 16 17 17 18 19 18 20 18 16 16 18 19 18 18 18 18 19 21 22 24 27 29 31 31 30 33 38 40 46 54 61 65 72 74 73 69 60 54 53
26 21 22 22 19 19 19 18 18 18 18 19 21 20 18 17 18 17 16 16 16 18 20 21 24 27 27 27 27 30 34 39 44 46 53 61 70 67 46 29 26 26 28 30 33
27 26 26 25 23 22 22 22 21 19 19 20 20 19 18 17 16 16 15 16 16 18 21 24 27 28 28 26 28 32 36 41 48 54 60 63 40 36 30 29 29 30 34 39 44
31 32 30 28 26 25 24 23 24 24 22 19 19 19 17 16 13 14 14 15 16 19 23 27 28 27 27 29 32 37 40 44 50 58 59 41 36 36 35 32 33 33 33 37 45
34 33 33 31 30 30 27 25 25 24 22 19 17 19 17 14 14 14 14 16 17 20 24 25 25 26 27 30 33 38 43 49 54 60 42 38 39 35 34 34 34 36 43 46 51
33 34 34 34 33 32 28 26 25 24 22 17 15 16 16 14 14 14 16 16 19 23 25 24 24 26 29 31 36 40 45 50 55 48 38 37 38 30 33 35 37 38 42 46 50
34 32 32 31 30 29 27 27 27 24 21 17 13 15 16 16 17 17 16 17 20 24 24 23 25 26 28 33 38 41 45 49 50 40 33 36 39 35 38 38 36 40 43 48 52
40 37 33 29 28 28 26 24 26 22 20 19 15 15 17 17 17 19 18 16 20 24 23 23 26 27 28 33 38 43 46 49 51 39 34 39 39 41 39 36 39 43 48 51 54
33 39 41 36 33 30 27 26 24 19 21 20 21 16 18 20 20 21 20 20 21 23 24 25 25 26 29 35 38 44 48 50 46 35 34 37 43 43 40 40 44 51 49 51 58
35 35 37 38 39 34 30 32 28 24 22 21 21 22 18 19 22 22 21 22 24 26 23 24 24 27 29 36 38 43 48 49 42 31 36 39 44 46 44 46 44 46 53 57 64
35 27 31 39 38 39 36 30 32 31 28 29 27 25 22 22 23 23 24 24 24 26 25 24 24 28 32 35 37 43 47 49 35 30 39 42 41 47 43 43 48 52 54 57 66
41 40 31 35 32 35 41 33 32 31 30 30 30 30 28 26 24 26 26 26 25 26 26 26 23 29 33 37 35 40 45 48 35 28 37 47 40 46 41 45 51 51 54 59 57
48 43 41 32 36 34 35 34 34 34 31 30 29 28 26 25 28 30 26 27 27 26 26 26 26 29 33 36 37 38 43 45 34 28 35 43 41 44 39 44 48 51 54 62 51
52 50 46 40 40 36 37 36 32 31 32 31 31 28 27 28 31 31 29 28 28 26 26 27 26 28 31 37 38 39 43 43 34 26 30 39 41 36 34 42 49 50 56 61 45
57 54 52 46 45 38 44 43 36 33 33 30 27 29 29 30 31 29 30 28 27 26 25 27 24 26 31 38 41 42 45 42 35 25 32 38 41 31 38 45 47 48 54 58 46
61 60 57 50 46 51 42 37 37 33 34 32 28 25 28 30 28 27 28 27 26 25 26 25 24 25 28 36 39 41 41 39 32 25 32 35 37 31 38 46 48 48 49 53 53
66 64 62 56 52 53 49 48 45 39 35 34 32 29 28 29 28 27 27 28 27 25 26 25 25 28 27 32 36 39 39 35 23 27 33 36 29 32 39 44 45 45 44 49 55
69 67 64 61 58 54 47 44 41 39 35 34 37 33 30 30 29 27 27 27 26 25 25 25 25 28 28 32 35 37 39 20 21 26 31 33 33 32 38 41 43 41 42 47 53
Wind_Direction
288 289 298 299 292 291 288 284 281 270 266 261 220 198 175 152 127 76 353 356 339 351 348 350 349 351 1 2 4 2 358 3 357 345 346 334 320 308 308 300 297 284 274 270 270
286 290 297 298 295 286 280 278 270 259 257 246 221 193 191 170 251 309 319 310 326 334 337 338 340 339 340 348 345 340 338 334 337 333 318 312 308 310 306 299 288 288 286 284 285
288 297 297 301 293 282 278 268 257 251 240 227 226 208 202 213 233 268 291 310 315 315 322 323 333 335 331 334 333 331 329 324 325 320 316 310 309 303 298 294 290 286 287 287 284
282 296 298 297 291 279 270 262 245 241 229 222 216 213 216 234 261 281 293 302 307 305 311 322 324 326 327 327 327 326 324 322 320 315 307 304 300 299 295 289 287 287 286 283 284
282 289 294 296 290 273 261 253 242 233 230 223 217 218 231 241 262 282 294 298 306 303 306 311 311 318 321 324 325 326 323 321 317 313 308 306 303 302 295 292 290 287 284 282 279
273 279 285 285 281 268 248 244 238 237 232 225 219 227 239 259 276 286 293 296 293 297 301 303 306 313 318 322 324 322 318 315 314 311 310 310 309 306 301 297 292 290 286 284 282
260 264 275 274 269 259 245 240 239 239 238 230 228 238 254 271 282 288 293 293 293 297 299 302 310 314 317 319 320 321 318 314 310 311 309 309 309 304 301 297 294 289 285 282 279
251 257 260 263 260 252 245 242 240 244 247 254 256 266 280 291 290 289 289 290 293 297 301 305 309 311 314 314 316 319 318 315 317 318 314 309 306 305 302 300 297 293 290 287 284
241 247 245 256 257 253 250 250 254 260 260 264 268 279 287 289 292 293 295 296 296 298 301 306 310 312 312 314 314 315 319 318 316 314 312 311 306 304 299 296 296 292 289 287 284
242 241 247 248 255 258 259 258 263 266 268 270 273 278 284 292 297 295 297 296 295 299 302 306 309 312 315 320 320 318 317 317 318 315 315 313 309 302 300 296 290 289 290 291 291
252 244 246 248 249 256 262 263 263 268 274 273 270 270 276 283 288 289 290 292 296 299 303 308 312 315 317 318 317 319 321 322 320 321 320 317 314 310 316 325 322 314 306 299 297
244 239 243 248 250 258 254 259 265 269 275 280 276 271 270 270 276 281 284 291 298 302 309 315 319 319 318 319 321 322 324 321 322 328 323 324 325 328 328 328 327 325 325 323 318
246 246 241 244 249 255 258 254 261 268 275 275 278 273 270 269 269 274 282 287 295 308 314 319 320 321 322 323 325 323 321 324 331 329 330 322 326 327 327 324 320 320 312 308 310
248 246 242 242 249 254 260 260 258 267 275 276 274 275 268 263 263 268 277 290 303 311 315 319 321 322 323 323 320 322 325 331 334 334 330 324 324 317 318 318 313 315 320 319 318
253 253 254 254 254 258 263 259 261 267 276 275 272 271 267 260 259 268 279 294 307 317 318 322 324 322 322 320 322 325 331 335 338 333 323 321 321 321 313 318 315 316 316 317 314
252 251 253 254 256 259 262 262 261 262 269 267 265 269 269 262 265 268 281 294 306 315 320 319 321 318 319 322 323 329 334 339 337 327 320 328 331 332 317 314 312 312 316 317 316
247 246 245 250 255 256 257 259 258 253 259 260 267 270 268 267 271 279 281 294 305 314 319 319 316 315 319 322 328 333 338 339 336 329 330 332 335 335 323 319 318 320 324 323 319
248 248 244 243 244 248 252 252 256 253 251 260 264 260 263 271 276 282 287 295 301 311 314 317 312 313 319 325 330 335 339 341 333 325 325 330 338 333 333 332 333 333 327 323 324
246 254 252 247 240 238 244 254 255 249 252 256 262 265 267 265 271 276 284 291 300 309 308 314 311 314 322 326 332 337 339 340 332 323 322 336 342 335 341 340 337 334 335 329 326
247 244 242 250 246 239 241 250 253 254 255 255 262 267 270 269 269 276 280 286 299 305 306 309 310 316 321 327 334 338 338 341 335 325 327 334 346 335 341 341 343 340 333 331 328
256 253 234 249 248 247 243 245 253 252 251 254 261 267 266 269 272 273 275 281 296 302 306 306 310 316 319 325 333 340 339 340 332 324 326 329 352 336 343 345 343 339 337 332 341
250 256 246 248 238 239 241 248 252 249 251 253 257 264 266 270 269 268 269 278 292 298 304 304 307 314 318 323 333 340 339 339 328 325 329 330 347 337 344 346 343 342 340 346 346
245 245 249 251 247 247 241 240 241 248 252 252 256 257 265 263 269 270 265 272 285 292 299 303 308 311 317 321 335 339 336 337 331 317 326 331 341 335 338 345 346 342 349 350 348
247 246 244 240 239 245 239 243 248 246 244 241 252 259 258 261 264 270 267 270 281 287 293 299 304 311 320 323 332 337 331 336 334 316 326 333 337 343 347 348 345 349 350 352 351
245 245 245 241 236 243 243 236 240 246 244 239 246 254 260 258 259 261 265 267 277 285 290 295 300 304 322 323 332 334 331 334 336 322 333 337 335 344 344 349 350 352 353 353 358
242 243 244 242 238 241 242 249 254 252 249 245 249 251 257 263 260 260 261 266 276 284 290 290 296 300 322 324 330 331 334 340 333 325 338 334 342 342 344 352 355 352 355 359 4
239 241 241 242 241 239 240 242 243 242 243 254 259 258 254 258 258 256 255 263 271 280 283 285 292 302 319 324 329 332 343 342 332 330 336 335 339 346 349 353 356 358 2 6 8
Height
5773 5772 5770 5769 5767 5765 5764 5763 5762 5761 5762 5763 5763 5764 5764 5764 5765 5765 5765 5764 5764 5763 5762 5761 5760 5759 5758 5757 5755 5755 5755 5755 5755 5754 5754 5753 5753 5754 5754 5752 5750 5750 5751 5749 5753
5769 5768 5767 5767 5764 5762 5762 5760 5760 5759 5760 5762 5762 5762 5763 5763 5764 5764 5764 5764 5762 5762 5761 5760 5759 5758 5757 5756 5755 5754 5753 5752 5752 5752 5751 5751 5750 5748 5748 5748 5746 5746 5747 5744 5746
5767 5765 5764 5764 5761 5760 5759 5758 5758 5758 5759 5760 5760 5760 5761 5762 5763 5763 5763 5763 5761 5760 5760 5759 5757 5756 5755 5754 5753 5751 5750 5749 5749 5747 5747 5748 5746 5746 5746 5743 5741 5740 5739 5739 5739
5763 5762 5762 5761 5759 5757 5756 5756 5755 5756 5757 5758 5758 5759 5760 5761 5762 5761 5761 5761 5760 5759 5758 5757 5755 5754 5752 5750 5749 5748 5747 5746 5745 5745 5745 5744 5744 5742 5739 5740 5737 5734 5734 5732 5729
5760 5760 5759 5758 5757 5756 5754 5754 5754 5755 5756 5756 5757 5757 5758 5759 5759 5760 5759 5758 5758 5757 5756 5755 5754 5751 5750 5748 5746 5744 5742 5741 5741 5741 5740 5739 5736 5734 5733 5732 5731 5728 5724 5722 5722
5757 5757 5757 5756 5754 5754 5753 5753 5753 5754 5755 5755 5755 5756 5757 5757 5756 5756 5756 5756 5755 5755 5754 5752 5751 5749 5747 5745 5743 5741 5740 5738 5737 5735 5732 5730 5727 5723 5724 5722 5722 5717 5715 5712 5710
5753 5753 5754 5753 5752 5752 5751 5751 5752 5752 5753 5752 5753 5753 5754 5755 5754 5753 5753 5753 5752 5752 5751 5749 5747 5746 5744 5742 5739 5737 5734 5732 5732 5729 5727 5724 5722 5714 5710 5708 5706 5704 5701 5697 5694
5748 5749 5750 5751 5750 5749 5749 5750 5751 5751 5750 5751 5751 5751 5752 5751 5750 5750 5750 5749 5749 5747 5747 5745 5744 5742 5740 5738 5735 5733 5730 5726 5721 5719 5716 5715 5715 5705 5697 5692 5688 5683 5681 5678 5675
5742 5743 5745 5747 5747 5746 5746 5747 5748 5748 5747 5748 5748 5748 5748 5748 5748 5747 5746 5746 5745 5744 5743 5742 5741 5739 5737 5734 5732 5729 5725 5722 5719 5714 5709 5704 5702 5694 5686 5678 5669 5663 5659 5655 5652
5736 5737 5740 5742 5742 5743 5743 5743 5744 5744 5744 5744 5744 5746 5745 5745 5745 5744 5744 5743 5743 5742 5740 5739 5737 5735 5732 5729 5726 5723 5720 5717 5712 5708 5702 5695 5689 5677 5670 5661 5653 5644 5638 5634 5630
5730 5732 5735 5736 5738 5738 5739 5740 5741 5741 5740 5740 5740 5739 5740 5740 5740 5740 5740 5739 5739 5738 5737 5735 5733 5730 5726 5723 5719 5717 5714 5710 5705 5700 5694 5681 5670 5661 5649 5642 5639 5636 5632 5628 5624
5724 5727 5729 5731 5732 5733 5733 5735 5736 5737 5736 5735 5735 5735 5735 5735 5735 5735 5735 5736 5734 5733 5732 5731 5727 5724 5721 5718 5714 5710 5706 5705 5697 5687 5680 5669 5658 5652 5646 5641 5635 5630 5625 5621 5616
5718 5720 5722 5724 5726 5727 5728 5729 5730 5730 5732 5731 5730 5730 5731 5731 5730 5731 5731 5731 5730 5728 5726 5723 5722 5718 5715 5712 5708 5704 5701 5696 5689 5679 5665 5659 5656 5646 5641 5635 5630 5625 5621 5616 5609
5711 5713 5715 5717 5720 5720 5722 5723 5724 5724 5727 5727 5726 5726 5726 5726 5726 5726 5726 5727 5725 5723 5720 5719 5716 5712 5709 5706 5704 5699 5694 5685 5676 5667 5659 5650 5647 5640 5634 5629 5624 5618 5610 5601 5593
5705 5707 5708 5710 5712 5714 5716 5717 5718 5719 5722 5722 5721 5722 5722 5723 5723 5722 5721 5721 5720 5718 5717 5714 5710 5707 5705 5702 5699 5694 5686 5678 5668 5659 5653 5646 5641 5635 5628 5623 5615 5609 5603 5595 5586
5698 5700 5701 5703 5705 5707 5709 5710 5713 5715 5716 5717 5716 5717 5718 5718 5718 5717 5717 5716 5715 5714 5711 5709 5705 5703 5699 5696 5693 5687 5679 5670 5661 5654 5649 5643 5635 5631 5622 5616 5609 5601 5593 5584 5574
5689 5692 5694 5697 5699 5701 5703 5705 5707 5708 5711 5713 5711 5711 5713 5714 5715 5714 5713 5711 5710 5709 5707 5705 5701 5698 5694 5691 5686 5680 5671 5664 5657 5647 5643 5636 5631 5623 5614 5607 5599 5590 5581 5571 5561
5679 5682 5685 5687 5691 5695 5697 5700 5701 5704 5704 5706 5706 5705 5707 5708 5709 5709 5708 5707 5705 5703 5700 5699 5697 5694 5689 5686 5680 5673 5664 5655 5644 5639 5638 5634 5626 5617 5608 5598 5589 5578 5571 5561 5548
5669 5673 5676 5678 5682 5686 5690 5691 5695 5698 5699 5700 5701 5701 5701 5701 5703 5703 5703 5703 5702 5699 5697 5692 5692 5688 5684 5680 5675 5667 5660 5652 5642 5636 5630 5627 5619 5607 5598 5589 5584 5574 5559 5549 5534
5657 5662 5666 5669 5673 5677 5680 5684 5687 5689 5691 5692 5694 5695 5696 5696 5696 5697 5698 5698 5696 5694 5691 5688 5686 5683 5679 5675 5670 5661 5654 5646 5638 5630 5623 5620 5615 5601 5594 5586 5576 5564 5554 5541 5526
5648 5651 5655 5659 5663 5668 5671 5676 5679 5681 5683 5685 5687 5687 5689 5690 5688 5690 5693 5693 5691 5688 5686 5684 5681 5679 5675 5669 5664 5656 5649 5641 5634 5628 5622 5612 5612 5598 5590 5580 5570 5561 5549 5533 5512
5638 5640 5646 5648 5653 5657 5662 5668 5671 5673 5674 5676 5678 5680 5681 5682 5683 5685 5686 5686 5685 5683 5681 5678 5676 5673 5670 5664 5659 5651 5644 5639 5630 5625 5619 5612 5608 5596 5588 5580 5570 5558 5545 5525 5508
5625 5630 5634 5639 5642 5647 5654 5658 5662 5665 5667 5669 5670 5672 5674 5675 5677 5679 5679 5679 5679 5678 5675 5673 5671 5667 5665 5661 5654 5647 5641 5634 5627 5621 5618 5610 5606 5596 5590 5581 5567 5555 5538 5522 5506
5611 5616 5622 5629 5634 5637 5642 5648 5653 5657 5659 5661 5664 5665 5667 5669 5669 5670 5673 5673 5673 5673 5669 5667 5666 5663 5661 5654 5650 5643 5637 5631 5624 5617 5612 5606 5597 5593 5584 5574 5565 5551 5538 5522 5505
5596 5603 5609 5618 5624 5628 5633 5639 5643 5648 5651 5653 5657 5658 5659 5660 5662 5663 5665 5666 5667 5666 5664 5661 5661 5659 5657 5650 5645 5639 5633 5625 5616 5613 5609 5605 5595 5589 5582 5574 5561 5549 5538 5526 5507
5581 5589 5596 5605 5613 5618 5625 5631 5635 5638 5641 5645 5648 5650 5652 5654 5657 5657 5658 5659 5660 5661 5659 5657 5654 5654 5653 5647 5643 5638 5630 5622 5615 5610 5605 5599 5596 5587 5580 5570 5561 5551 5541 5528 5512
5565 5574 5583 5591 5598 5607 5616 5621 5625 5630 5631 5635 5638 5641 5644 5647 5648 5649 5651 5652 5653 5654 5653 5653 5649 5648 5647 5642 5639 5634 5626 5620 5615 5610 5604 5597 5591 5586 5580 5571 5564 5554 5543 5531 5517